This is the latest recevied weather packets stored in our database for station/object VU3ZAG-WX. If no packets are shown the sender has not sent any weather packets the latest 10 day(s).
| Time | Temp. | Humidity | Pressure | Rain* | Wind** | Luminosity | Snow |
|---|---|---|---|---|---|---|---|
| 1777812573 | 36.11° C | 57% | 1007.4 hPa | - | - | - | - |
| 1777811967 | 36.11° C | 56% | 1007.3 hPa | - | - | - | - |
| 1777811362 | 36.67° C | 55% | 1007.2 hPa | - | - | - | - |
| 1777810756 | 36.67° C | 56% | 1007.1 hPa | - | - | - | - |
| 1777810150 | 36.67° C | 55% | 1007 hPa | - | - | - | - |
| 1777809545 | 37.22° C | 55% | 1007 hPa | - | - | - | - |
| 1777808334 | 37.78° C | 53% | 1006.9 hPa | - | - | - | - |
| 1777807122 | 37.78° C | 51% | 1006.9 hPa | - | - | - | - |
| 1777806516 | 37.78° C | 52% | 1006.9 hPa | - | - | - | - |
| 1777805907 | 37.78° C | 51% | 1006.9 hPa | - | - | - | - |
| 1777805301 | 37.78° C | 54% | 1007 hPa | - | - | - | - |
| 1777804692 | 38.33° C | 51% | 1007 hPa | - | - | - | - |
| 1777804087 | 38.89° C | 49% | 1007.1 hPa | - | - | - | - |
| 1777803481 | 38.89° C | 48% | 1007.2 hPa | - | - | - | - |
| 1777802873 | 38.33° C | 49% | 1007.3 hPa | - | - | - | - |
| 1777802267 | 38.33° C | 48% | 1007.4 hPa | - | - | - | - |
| 1777801661 | 38.33° C | 50% | 1007.5 hPa | - | - | - | - |
| 1777801054 | 38.33° C | 50% | 1007.6 hPa | - | - | - | - |
| 1777800449 | 38.33° C | 49% | 1007.6 hPa | - | - | - | - |
| 1777799843 | 38.33° C | 51% | 1007.7 hPa | - | - | - | - |
| 1777799234 | 38.33° C | 50% | 1007.8 hPa | - | - | - | - |
| 1777798596 | 38.89° C | 50% | 1007.9 hPa | - | - | - | - |
| 1777797971 | 38.89° C | 48% | 1008 hPa | - | - | - | - |
| 1777797361 | 38.89° C | 50% | 1008.2 hPa | - | - | - | - |
| 1777796740 | 38.89° C | 48% | 1008.3 hPa | - | - | - | - |
* Rain since midnight (hover to see other rain measurements)
** Current wind speed in m/s (hover to see current wind gust speed)